Weather History for Alexandria Esle, LA

Change the Weather History Date:

Monday, October 1, 2012

  Actual Average Record
Temperature  
Mean Temperature 66 °F -  
Max Temperature 75 °F 83 °F 93 °F (1998)
Min Temperature 60 °F 56 °F 41 °F (1963)
Cooling Degree Days 2    
Growing Degree Days 16 (Base 50)    
Moisture  
Dew Point 58 °F    
Average Humidity 83    
Maximum Humidity 94    
Minimum Humidity 55    
Precipitation  
Precipitation 0.03 in - - ()
Sea Level Pressure  
Sea Level Pressure 29.70 in    
Wind  
Wind Speed 6 mph (NW)    
Max Wind Speed 10 mph    
Max Gust Speed 22 mph    
Visibility 7 miles    
Events Fog , Rain    
Averages and records for this station are not official NWS values.
T = Trace of Precipitation, MM = Missing Value Source: NWS Daily Summary

Daily Weather History Graph

Daily Weather History Graph

Search for Another Location

Airport:

Trip Planner

Search our weather history database for the weather conditions in past years. The results will help you decide how hot, cold, wet, or windy it might be!

Date:

Astronomy

Oct. 01, 2012 Rise Set
Actual Time 7:03 AM CDT 6:53 PM CDT
Civil Twilight 6:39 AM CDT 7:17 PM CDT
Nautical Twilight 6:10 AM CDT 7:45 PM CDT
Astronomical Twilight 5:42 AM CDT 8:14 PM CDT
Moon 7:41 PM CDT (10/1) 8:24 AM CDT (10/1)
Length of Visible Light 12h 38m
Length of Day
11h 50m
Full, 98% of the Moon is Illuminated
Oct 1
Full
Oct 8
Last Quarter
Oct 15
New
Oct 21
First Quarter
Oct 29
Full

Hourly Weather History & Observations

Time (CDT) Temp. Dew Point Humidity Pressure Visibility Wind Dir Wind Speed Gust Speed Precip Events Conditions
12:53 AM 60.1 °F 57.9 °F 93% 29.63 in 4.0 mi NW 6.9 mph - 0.00 in Rain Light Rain
1:53 AM 60.1 °F 57.0 °F 90% 29.63 in 4.0 mi NNW 8.1 mph 18.4 mph 0.01 in   Overcast
2:43 AM 60.8 °F 57.2 °F 88% 29.62 in 9.0 mi NW 6.9 mph - N/A   Overcast
2:53 AM 60.1 °F 57.0 °F 90% 29.62 in 8.0 mi NW 5.8 mph - N/A   Overcast
3:53 AM 60.1 °F 57.0 °F 90% 29.62 in 10.0 mi NW 5.8 mph - N/A   Overcast
4:53 AM 60.1 °F 57.0 °F 90% 29.63 in 10.0 mi NW 5.8 mph - N/A   Overcast
5:06 AM 60.8 °F 57.2 °F 88% 29.63 in 10.0 mi NW 6.9 mph - N/A   Overcast
5:53 AM 61.0 °F 57.0 °F 87% 29.64 in 10.0 mi NW 5.8 mph - N/A   Overcast
6:20 AM 60.8 °F 57.2 °F 88% 29.65 in 8.0 mi NW 6.9 mph - 0.00 in   Overcast
6:39 AM 60.8 °F 57.2 °F 88% 29.65 in 5.0 mi WNW 3.5 mph - 0.00 in   Overcast
6:53 AM 60.8 °F 57.2 °F 88% 29.66 in 4.0 mi Variable 4.6 mph - N/A Rain Light Rain
7:53 AM 61.0 °F 57.9 °F 90% 29.68 in 10.0 mi NW 8.1 mph - 0.02 in   Overcast
8:26 AM 60.8 °F 57.2 °F 88% 29.69 in 2.0 mi NW 9.2 mph - N/A   Overcast
8:53 AM 61.0 °F 57.9 °F 90% 29.70 in 2.5 mi NW 8.1 mph - N/A   Overcast
9:08 AM 60.8 °F 57.2 °F 88% 29.70 in 4.0 mi NW 6.9 mph - N/A   Overcast
9:28 AM 62.6 °F 59.0 °F 88% 29.70 in 9.0 mi Variable 6.9 mph - N/A   Overcast
9:35 AM 62.6 °F 59.0 °F 88% 29.70 in 10.0 mi Variable 5.8 mph - N/A   Overcast
9:53 AM 64.0 °F 59.0 °F 84% 29.70 in 10.0 mi NW 10.4 mph - N/A   Overcast
10:33 AM 66.2 °F 59.0 °F 78% 29.71 in 10.0 mi NNW 10.4 mph - N/A   Overcast
10:53 AM 66.9 °F 59.0 °F 76% 29.71 in 10.0 mi NNW 8.1 mph 18.4 mph N/A   Overcast
11:27 AM 68.0 °F 57.2 °F 68% 29.71 in 10.0 mi NNW 10.4 mph 19.6 mph N/A   Overcast
11:53 AM 68.0 °F 59.0 °F 73% 29.70 in 10.0 mi NNW 8.1 mph 16.1 mph N/A   Overcast
12:03 PM 68.0 °F 59.0 °F 73% 29.71 in 10.0 mi NNW 8.1 mph - N/A   Overcast
12:53 PM 70.0 °F 57.9 °F 65% 29.70 in 10.0 mi Variable 5.8 mph 18.4 mph N/A   Overcast
1:53 PM 73.4 °F 57.2 °F 57% 29.68 in 10.0 mi North 10.4 mph 17.3 mph N/A   Overcast
2:53 PM 73.9 °F 57.0 °F 55% 29.68 in 10.0 mi NW 8.1 mph 21.9 mph N/A   Overcast
3:53 PM 73.4 °F 57.2 °F 57% 29.70 in 10.0 mi NNW 10.4 mph 16.1 mph N/A   Overcast
4:53 PM 69.8 °F 60.8 °F 73% 29.71 in 10.0 mi Calm Calm - N/A   Overcast
5:53 PM 71.1 °F 59.0 °F 66% 29.72 in 10.0 mi Calm Calm - N/A   Overcast
6:53 PM 68.0 °F 62.1 °F 81% 29.73 in 10.0 mi Calm Calm - N/A   Overcast
7:53 PM 66.9 °F 60.1 °F 79% 29.74 in 10.0 mi Calm Calm - N/A   Overcast
8:53 PM 64.0 °F 61.0 °F 90% 29.76 in 10.0 mi Calm Calm - N/A   Partly Cloudy
9:53 PM 64.0 °F 61.0 °F 90% 29.78 in 10.0 mi Calm Calm - N/A   Clear
10:53 PM 63.0 °F 61.0 °F 93% 29.79 in 5.0 mi Calm Calm - N/A   Clear
11:05 PM 62.6 °F 60.8 °F 94% 29.79 in 2.0 mi Calm Calm - N/A   Clear
11:15 PM 62.6 °F 59.0 °F 88% 29.79 in 3.0 mi Calm Calm - N/A   Clear
11:25 PM 60.8 °F 59.0 °F 94% 29.79 in 1.8 mi Calm Calm - N/A   Clear
11:31 PM 60.8 °F 59.0 °F 94% 29.78 in 0.5 mi Calm Calm - N/A Fog Fog
11:41 PM 60.8 °F 57.2 °F 88% 29.78 in 0.2 mi Calm Calm - N/A Fog Fog
11:53 PM 60.1 °F 57.9 °F 93% 29.78 in 0.2 mi Calm Calm - N/A Fog Fog